Weather Roundup
Issued by NWS

Home | Current Version | Previous Version | Text Only | Print | Product List | Glossary On
Versions: 1 2 3 4 5 6 7 8 9 10 11 12 13 14 15 16 17 18 19 20 21 22 23 24 25 26 27 28 29 30 31 32 33 34 35 36 37 38 39 40 41 42 43 44 45 46 47 48 49 50
000
NZUS99 KDVN 081010
HRRCWA
HOURLY WEATHER ROUNDUP
NATIONAL WEATHER SERVICE QUAD CITIES IA IL
500 AM CDT WED APR 08 2020

Note: "Fair" indicates few or no clouds below 12,000 feet with
no significant weather and/or obstructions to visibility.

* - These stations are not NWS stations and are not subject to NWS
quality control.  Some stations do not report weather such as fog
and some only report TMP and DP in whole degrees Celsius, which are
then converted to Fahrenheit.

...NORTHEAST IOWA..................................................

CITY           SKY/WX    TMP DP  RH WIND       PRES   REMARKS
DECORAH *      FOG       45  45 100 CALM      29.71R VSB 1/4
DUBUQUE        FOG       42  41  96 CALM      29.72F VSB 1/2
INDEPENDENCE * FOG       40  39  99 SE6       29.71S VSB 1/4 WCI  36
OELWEIN *      FOG       46  46 100 SE6       29.71F VSB 0   WCI  43
WATERLOO       FOG       42  40  92 CALM      29.72R VSB 3/4

...SOUTHWEST AND SOUTH CENTRAL WISCONSIN...........................

CITY           SKY/WX    TMP DP  RH WIND       PRES   REMARKS
BOSCOBEL       FOG       46  44  93 S3        29.71S VSB 1/4
JANESVILLE *   NOT AVBL
LONE ROCK      FOG       45  45 100 CALM      29.71S VSB<1/4
MINERAL POINT* FOG       46  46 100 SW6       29.71F VSB<1/4 WCI  43
MONROE *       FOG       46  45  97 SW7       29.73S VSB<1/4 WCI  42
PRAIRIE DU CHI FOG       44  44  97 CALM      29.71S VSB 1/4

...EAST CENTRAL IOWA...............................................

CITY           SKY/WX    TMP DP  RH WIND       PRES   REMARKS
CEDAR RAPIDS   FAIR      45  45 100 S3        29.72F
CLINTON *      FOG       48  48 100 N6        29.74R VSB 1/4 WCI  45
DAVENPORT      FOG       53  51  93 CALM      29.75R VSB 1/4
IOWA CITY      FOG       50  49  96 CALM      29.75S VSB 1/2
MARSHALLTOWN   FAIR      48  47  96 SE6       29.71F WCI  45
MONTICELLO *   FOG       43  43 100 S3        29.72F VSB<1/4
MUSCATINE *    FOG       50  50 100 CALM      29.74R VSB<1/4
NEWTON *       CLEAR     52  50  93 SE3       29.72F
VINTON *       FOG       45  45 100 S6        29.72F VSB 1   WCI  41

...NORTHWEST ILLINOIS..............................................

CITY           SKY/WX    TMP DP  RH WIND       PRES   REMARKS
FREEPORT *     FOG       42  42 100 CALM      29.75S VSB<1/4
MOLINE         FOG       49  47  93 CALM      29.73R VSB 1/4
PERU *         FAIR      55  53  93 CALM      29.71R FOG
ROCHELLE *     FOG       48  48 100 CALM      29.74R VSB 1/4
ROCKFORD       FOG       46  46 100 E3        29.75S VSB 1/4
SAVANNA *      FOG       48  48 100 CALM      29.74R VSB<1/4
STERLING/R.F.* MOCLDY    52  52 100 N3        29.75R FOG

...SOUTHEAST IOWA AND NORTHEAST MISSOURI...........................

CITY           SKY/WX    TMP DP  RH WIND       PRES   REMARKS
BURLINGTON     FAIR      58  55  90 E5        29.72S
FAIRFIELD *    CLEAR     50  50 100 NE6       29.74R WCI  48
FORT MADISON *   N/A     57  55  94 E5        29.73S
KEOKUK *       FAIR      59  57  94 NE7       29.72S
KIRKSVILLE     FAIR      57  53  86 NE6       29.73S
KNOXVILLE *    FAIR      54  52  94 E3        29.73S
MT PLEASANT *  FAIR      52  52 100 N6        29.74R FOG
OTTUMWA        FAIR      52  48  86 NE5       29.73S
WASHINGTON *   FAIR      52  52 100 N5        29.73R FOG

...WESTERN ILLINOIS................................................

CITY           SKY/WX    TMP DP  RH WIND       PRES   REMARKS
GALESBURG *    FOG       49  48  94 CALM      29.74R VSB 1/4
MACOMB *       FAIR      52  52  99 NE7       29.75S FOG
PEORIA         FAIR      58  53  84 NE7       29.72S
QUINCY         FAIR      58  56  93 NW3       29.72R FOG

END...




USA.gov is the U.S. government's official web portal to all federal, state and local government web resources and services.
  • National Weather Service
  • El Paso, TX Weather Forecast Office
  • 7955 Airport Rd
  • Santa Teresa, NM 88008
  • (575) 589-4088
  • Page Author: EPZ Webmaster
  • Web Master's E-mail: sr-epz.webmaster@noaa.gov
  • Page last modified: Mar 10th, 2020 21:02 UTC